Weather History for Grand Marais, MN

Change the Weather History Date:

Monday, December 12, 2011

  Actual Average (KCKC) Record (KCKC)
Temperature  
Mean Temperature 32 °F -  
Max Temperature 36 °F 24 °F 44 °F (1998)
Min Temperature 28 °F 11 °F -23 °F (2008)
Degree Days  
Heating Degree Days 33    
Moisture  
Dew Point 26 °F    
Average Humidity 76    
Maximum Humidity 82    
Minimum Humidity 69    
Precipitation  
Precipitation 0.00 in - - ()
Sea Level Pressure  
Sea Level Pressure 30.26 in    
Wind  
Wind Speed 5 mph (NE)    
Max Wind Speed 10 mph    
Max Gust Speed -    
Averages and records for this station are not official NWS values.
T = Trace of Precipitation, MM = Missing Value Source: NWS Daily Summary

Daily Weather History Graph

Daily Weather History Graph

Search for Another Location

Airport:

Trip Planner

Search our weather history database for the weather conditions in past years. The results will help you decide how hot, cold, wet, or windy it might be!

Date:

Astronomy

Dec. 12, 2011 Rise Set
Actual Time 7:40 AM CST 4:09 PM CST
Civil Twilight 7:04 AM CST 4:45 PM CST
Nautical Twilight 6:25 AM CST 5:24 PM CST
Astronomical Twilight 5:47 AM CST 6:02 PM CST
Moon 6:24 PM CST (12/12) 9:09 AM CST (12/12)
Length of Visible Light 9h 40m
Length of Day
8h 28m
Waning Gibbous, 95% of the Moon is Illuminated
Dec 12
Waning Gibbous
Dec 17
Last Quarter
Dec 24
New
Jan 1
First Quarter
Jan 9
Full

Hourly Weather History & Observations

Time (CST) Temp. Windchill Dew Point Humidity Pressure Visibility Wind Dir Wind Speed Gust Speed Precip Events Conditions
12:56 AM 32.0 °F 25.6 °F 26.1 °F 79% 30.14 in - WNW 6.9 mph - N/A   Unknown
1:56 AM 33.1 °F 27.7 °F 27.0 °F 78% 30.14 in - NW 5.8 mph - N/A   Unknown
2:56 AM 34.0 °F 31.0 °F 28.0 °F 79% 30.15 in - NW 3.5 mph - N/A   Unknown
3:56 AM 32.0 °F 27.5 °F 27.0 °F 82% 30.15 in - WNW 4.6 mph - N/A   Unknown
4:56 AM 36.0 °F 33.3 °F 28.9 °F 76% 30.16 in - South 3.5 mph - N/A   Unknown
5:56 AM 35.1 °F - 28.0 °F 76% 30.17 in - Calm Calm - N/A   Unknown
6:56 AM 34.0 °F - 28.9 °F 82% 30.20 in - Calm Calm - N/A   Unknown
7:56 AM 33.1 °F 30.0 °F 28.0 °F 82% 30.21 in - NNE 3.5 mph - N/A   Unknown
8:56 AM 34.0 °F 29.8 °F 28.9 °F 82% 30.24 in - ENE 4.6 mph - N/A   Unknown
9:56 AM 34.0 °F 31.0 °F 28.0 °F 79% 30.24 in - ENE 3.5 mph - N/A   Unknown
10:56 AM 34.0 °F 26.6 °F 28.0 °F 79% 30.25 in - ENE 9.2 mph - N/A   Unknown
11:56 AM 34.0 °F 26.6 °F 28.0 °F 79% 30.25 in - ENE 9.2 mph - N/A   Unknown
12:56 PM 33.1 °F 24.9 °F 27.0 °F 78% 30.26 in - ENE 10.4 mph - N/A   Unknown
1:56 PM 33.1 °F 26.9 °F 27.0 °F 78% 30.27 in - ENE 6.9 mph - N/A   Unknown
2:56 PM 33.1 °F 30.0 °F 26.1 °F 75% 30.27 in - Variable 3.5 mph - N/A   Unknown
3:56 PM 32.0 °F 26.4 °F 25.0 °F 75% 30.29 in - ENE 5.8 mph - N/A   Unknown
4:56 PM 32.0 °F 25.6 °F 24.1 °F 73% 30.30 in - ENE 6.9 mph - N/A   Unknown
5:56 PM 32.0 °F 26.4 °F 23.0 °F 69% 30.32 in - NE 5.8 mph - N/A   Unknown
6:56 PM 30.9 °F - 21.9 °F 69% 30.35 in - Calm Calm - N/A   Unknown
7:56 PM 30.0 °F 26.5 °F 21.0 °F 69% 30.37 in - ENE 3.5 mph - N/A   Unknown
8:56 PM 28.9 °F 23.9 °F 21.0 °F 72% 30.38 in - East 4.6 mph - N/A   Unknown
9:56 PM 28.9 °F - 21.0 °F 72% 30.39 in - Calm Calm - N/A   Unknown
10:56 PM 28.9 °F 25.2 °F 21.0 °F 72% 30.39 in - NE 3.5 mph - N/A   Unknown
11:56 PM 28.9 °F 25.2 °F 19.9 °F 69% 30.40 in - North 3.5 mph - N/A   Unknown